Location: Unspecified
(33.9828°N, 0.0000°E)
Time: 13:07:22
(UTC+00:00)

CZ-6A DEB - Visible Passes

Search period start: 04 April 2026 00:00
Search period end: 14 April 2026 00:00
Orbit: 782 x 870 km, 89.0° (Epoch: 29 March)

Date Brightness Start Highest point End Pass type
(mag) Time Alt. Az. Time Alt. Az. Time Alt. Az.
4 Apr ? 05:08:23 10° SE 05:12:41 25° E 05:16:55 10° NNE visible
4 Apr ? 19:12:00 10° NW 19:15:02 16° WNW 19:18:05 10° WSW visible
5 Apr ? 04:50:12 10° ESE 04:53:42 18° ENE 04:57:11 10° NE visible
5 Apr ? 18:52:05 10° NNW 18:56:04 22° W 19:00:06 10° SW visible
6 Apr ? 04:32:33 10° E 04:34:45 13° ENE 04:36:55 10° NE visible
10 Apr ? 04:54:28 10° SE 04:59:09 34° E 05:03:48 10° NNE visible
10 Apr ? 18:59:45 10° WNW 19:01:27 11° WNW 19:03:09 10° W visible
11 Apr ? 04:35:58 10° SE 04:40:06 24° E 04:44:14 10° NNE visible
12 Apr ? 04:17:48 10° ESE 04:21:06 17° ENE 04:24:24 10° NE visible
13 Apr ? 04:00:17 10° E 04:02:07 12° ENE 04:03:57 10° NE visible
